KS4KP Weather Reports


time (UTC)temp
F
wind
direction
speed
knots
gust
knots
rain 1hr
in
rain 24hr
in
rain mn
in
humidity
%
barometer
mb
20260510123015 72 193 0.0 0.0 0.00 0.08 0.01 86 1015.8
20260510122015 71 193 0.0 0.0 0.00 0.08 0.01 87 1015.7
20260510120013 70 193 0.0 0.0 0.00 0.08 0.01 87 1015.5
20260510115015 70 193 0.0 0.0 0.00 0.08 0.01 87 1015.5
20260510114016 69 193 0.0 0.0 0.00 0.08 0.01 87 1015.3
20260510113014 69 193 0.0 0.0 0.00 0.08 0.01 87 1015.0
20260510111015 69 193 0.0 0.0 0.00 0.08 0.01 87 1014.8
20260510104015 69 193 0.0 0.0 0.00 0.08 0.01 87 1014.4
20260510103014 69 193 0.0 0.0 0.00 0.08 0.01 87 1014.2
20260510102015 69 193 0.0 0.0 0.00 0.08 0.01 87 1014.2
20260510100013 69 193 0.0 0.0 0.00 0.08 0.01 87 1014.1
20260510095015 69 193 0.0 0.0 0.00 0.08 0.01 87 1014.0
20260510094015 69 193 0.0 0.0 0.00 0.08 0.01 87 1013.9
20260510093015 69 193 0.0 0.0 0.00 0.08 0.01 87 1013.8
20260510092014 69 193 0.0 0.0 0.00 0.08 0.01 87 1013.7
20260510091014 70 193 0.0 0.0 0.00 0.08 0.01 87 1013.6
20260510090013 70 193 0.0 0.0 0.00 0.08 0.01 87 1013.4
20260510084014 70 193 0.0 0.0 0.00 0.08 0.01 87 1013.2
20260510083017 71 193 0.0 0.0 0.01 0.08 0.01 87 1013.0
20260510082015 71 193 0.0 0.0 0.01 0.08 0.01 87 1013.1
20260510081015 71 193 0.0 0.0 0.01 0.08 0.01 87 1013.2
20260510080013 70 193 0.0 0.0 0.01 0.08 0.01 87 1013.1
20260510074014 70 193 0.0 0.0 0.01 0.08 0.01 87 1013.1
20260510073014 70 193 0.0 0.0 0.00 0.07 0.00 87 1013.1
20260510072014 70 193 0.0 0.0 0.00 0.07 0.00 88 1013.0
20260510071014 70 193 0.0 0.0 0.00 0.07 0.00 88 1012.9
20260510070013 71 193 0.0 0.0 0.00 0.07 0.00 87 1012.9
20260510065014 71 193 0.0 0.0 0.00 0.07 0.00 87 1012.9
20260510064017 71 193 0.0 0.0 0.00 0.07 0.00 87 1013.0
20260510061015 71 190 0.9 2.6 0.00 0.07 0.00 87 1013.3
20260510055014 71 173 0.0 1.7 0.00 0.07 0.00 87 1013.6
20260510054015 70 145 0.0 1.7 0.00 0.07 0.00 88 1013.9
20260510053017 70 145 0.0 0.0 0.00 0.07 0.00 88 1014.0
20260510052014 70 145 0.0 0.0 0.00 0.07 0.00 88 1014.2
20260510051015 70 145 0.0 0.0 0.00 0.07 0.00 88 1014.2
20260510050013 71 145 0.0 0.0 0.00 0.07 0.00 88 1014.4
20260510045014 71 145 0.0 0.0 0.00 0.07 0.00 88 1014.6
20260510044015 71 145 0.0 0.0 0.00 0.07 0.00 88 1014.8
20260510043016 71 145 0.0 0.0 0.00 0.07 0.00 88 1014.9
20260510042015 71 145 0.0 0.0 0.00 0.07 0.00 88 1014.8
20260510041014 71 145 0.0 0.0 0.00 0.07 0.00 88 1014.8
20260510040013 71 145 0.0 0.0 0.00 0.07 0.00 88 1014.8
20260510035016 71 145 0.0 0.0 0.00 0.07 0.07 88 1014.7
20260510033014 71 145 0.0 0.0 0.00 0.07 0.07 88 1014.7
20260510032015 71 145 0.0 0.0 0.00 0.07 0.07 88 1014.7
20260510031018 71 145 0.0 0.0 0.00 0.07 0.07 88 1014.9
20260510025014 71 127 0.0 1.7 0.00 0.07 0.07 88 1014.7
20260510024015 71 127 0.0 1.7 0.00 0.07 0.07 89 1014.8
20260510023018 71 127 0.0 0.0 0.00 0.07 0.07 89 1014.6
20260510020012 71 127 0.0 0.9 0.00 0.07 0.07 89 1014.0
20260510013016 71 127 0.0 0.0 0.00 0.07 0.07 90 1013.6
20260510012018 71 127 0.0 0.0 0.00 0.07 0.07 90 1013.3
20260510011016 71 127 0.0 0.0 0.00 0.07 0.07 90 1013.3
20260510010013 71 127 0.0 0.0 0.00 0.07 0.07 90 1013.1
20260510003014 72 94 0.0 0.0 0.01 0.07 0.07 90 1013.0
20260510002013 72 69 0.0 1.7 0.02 0.07 0.07 91 1012.9
20260510001014 72 56 0.9 1.7 0.02 0.07 0.07 91 1013.1
20260509235016 72 341 0.9 2.6 0.02 0.07 0.07 91 1013.8
20260509234014 73 317 0.9 1.7 0.02 0.07 0.07 91 1013.7
20260509233014 73 265 0.0 0.0 0.01 0.06 0.06 92 1013.6
20260509232013 73 280 0.0 2.6 0.00 0.05 0.05 92 1013.5
20260509230013 74 331 0.0 2.6 0.00 0.05 0.05 92 1013.5
20260509225017 74 291 0.9 2.6 0.00 0.05 0.05 92 1013.4
20260509224014 75 312 0.9 1.7 0.01 0.05 0.05 92 1013.4
20260509223014 75 334 0.0 2.6 0.01 0.05 0.05 92 1013.2
20260509222016 75 284 0.9 2.6 0.01 0.05 0.05 92 1013.2
20260509221016 75 246 0.9 2.6 0.01 0.05 0.05 92 1013.2
20260509220014 75 316 0.0 0.9 0.01 0.05 0.05 92 1013.3
20260509215017 75 331 0.0 2.6 0.01 0.05 0.05 92 1013.0
20260509214013 75 306 0.0 1.7 0.00 0.04 0.04 92 1012.9
20260509213017 75 298 0.0 0.9 0.00 0.04 0.04 92 1012.8
20260509211016 76 284 0.0 1.7 0.00 0.04 0.04 92 1012.5
20260509210013 76 311 0.9 1.7 0.00 0.04 0.04 92 1012.5
20260509205016 77 332 0.9 4.3 0.00 0.05 0.04 92 1012.7
20260509204013 77 284 0.9 4.3 0.00 0.14 0.04 92 1012.7
20260509202017 76 284 1.7 6.1 0.00 0.53 0.04 92 1012.7
20260509200012 77 272 0.0 0.0 0.02 0.53 0.04 91 1012.7
20260509195017 77 301 0.0 0.9 0.04 0.53 0.04 91 1012.7
20260509194014 77 301 0.0 1.7 0.04 0.53 0.04 92 1012.8
20260509193013 78 167 0.0 0.0 0.04 0.53 0.04 92 1012.5
20260509192014 78 168 0.0 0.9 0.04 0.53 0.04 92 1012.7
20260509190013 79 128 0.9 2.6 0.02 0.51 0.02 90 1012.9
20260509185014 80 184 0.0 0.0 0.00 0.49 0.00 89 1012.7
20260509184013 80 184 0.0 0.9 0.00 0.49 0.00 88 1012.8
20260509183014 80 184 0.0 0.0 0.00 0.49 0.00 87 1012.7
20260509182015 80 184 0.0 0.9 0.00 0.49 0.00 86 1013.0
20260509181014 80 184 0.0 0.9 0.00 0.49 0.00 86 1013.0
20260509180013 80 184 1.7 2.6 0.00 0.49 0.00 85 1013.0
20260509175016 81 185 0.9 2.6 0.00 0.49 0.00 85 1013.0
20260509174013 81 172 0.9 2.6 0.00 0.49 0.00 85 1013.2
20260509173014 81 175 0.9 2.6 0.00 0.49 0.00 84 1013.5
20260509171014 82 316 0.0 2.6 0.00 0.49 0.00 84 1013.4
20260509170015 81 190 1.7 4.3 0.00 0.49 0.00 83 1013.3
20260509165013 82 191 0.9 2.6 0.00 0.49 0.00 83 1013.4
20260509164013 81 234 0.9 2.6 0.00 0.49 0.00 86 1013.5
20260509163016 81 14 0.9 2.6 0.00 0.49 0.00 86 1013.6
20260509162012 80 182 0.9 2.6 0.00 0.49 0.00 86 1013.7
20260509161014 80 329 1.7 2.6 0.00 0.49 0.00 86 1013.7
20260509160012 80 178 0.9 2.6 0.00 0.49 0.00 88 1013.2
20260509155014 80 170 0.9 4.3 0.00 0.49 0.00 88 1013.5
20260509154013 79 162 0.9 2.6 0.00 0.49 0.00 89 1013.6
20260509152015 78 149 1.7 2.6 0.00 0.49 0.00 89 1013.7
20260509150012 78 198 0.9 2.6 0.00 0.49 0.00 90 1013.4
20260509145013 78 188 1.7 4.3 0.00 0.49 0.00 91 1013.4
20260509144013 77 188 1.7 2.6 0.00 0.49 0.00 92 1013.6
20260509142014 76 208 1.7 6.1 0.00 0.49 0.00 92 1013.6
20260509141015 75 205 0.0 2.6 0.00 0.49 0.00 92 1013.6
20260509140011 74 191 0.0 2.6 0.00 0.49 0.00 92 1013.8
20260509133014 73 184 0.9 2.6 0.00 0.49 0.00 91 1013.6
20260509132013 73 192 0.0 4.3 0.00 0.49 0.00 90 1013.5
20260509131014 72 180 0.9 4.3 0.00 0.49 0.00 89 1013.2
20260509130011 71 192 0.9 2.6 0.00 0.49 0.00 89 1013.2
20260509124013 69 182 1.7 2.6 0.00 0.49 0.00 88 1013.2